Location: Wloclawek
(52.6500°N, 19.0500°E)
Time: 03:30:01
(UTC+01:00)

ISS - Visible Passes

Search period start: 11 December 2018 00:00
Search period end: 21 December 2018 00:00
Orbit: 401 x 408 km, 51.6° (Epoch: 10 December)

Date Brightness Start Highest point End Pass type
(mag) Time Alt. Az. Time Alt. Az. Time Alt. Az.
11 Dec -2.2 16:38:44 10° W 16:41:45 35° SSW 16:44:46 10° SE visible
12 Dec -0.8 17:23:39 10° WSW 17:25:36 15° SW 17:27:33 10° S visible
13 Dec -1.2 16:31:01 10° W 16:33:37 22° SSW 16:36:13 10° SSE visible
15 Dec -0.4 16:23:47 10° WSW 16:25:20 13° SW 16:26:53 10° S visible
